www.pogodaiklimat.ru

Погода и климат >> Архив погоды >> Россия >> Якутия >> Иэма


ПОГОДА в Иэме

  • Прогноз погоды в Иэме
  • Монитор погоды в Иэме

АРХИВ ПОГОДЫ в Иэме

Время (UTC), дата Ветер
(напр.,м/с)
 
Видим.   Явления Облачность Т
(С)
Тd
(С)
f
(%)
Тe
(С)
Тes
(С)
Комфортность P
(гПа)
Po
(гПа)
Тmin
(С)
Tmax
(С)
R
(мм)
R24
(мм)
S
(см)
09 17.03 штиль 0 50 км ясно -27.6 -32.2 65 -28 -28 1020.1 929.4 -24.8
12 17.03 штиль 0 50 км ясно -36.5 -40.1 69 -37 -37 опасность
обморожения
1024.5 930.1
15 17.03 штиль 0 50 км ясно -40.0 -43.4 70 -40 -40 опасность
обморожения
1026.2 930.3
18 17.03 штиль 0 50 км ясно -41.4 -45.0 68 -41 -41 опасность
обморожения
1027.1 930.5
21 17.03 штиль 0 50 км ясно -42.7 -46.2 68 -43 -43 опасность
обморожения
1027.9 930.7 -43.6 29
00 18.03 штиль 0 50 км ясно -40.0 -43.4 70 -40 -37 опасность
обморожения
1027.0 931.0
03 18.03 штиль 0 50 км ясно -32.5 -36.9 65 -33 -27 опасность
обморожения
1023.6 930.7
06 18.03 штиль 0 50 км ясно -24.4 -30.9 55 -24 -22 1020.3 930.6
09 18.03 штиль 0 50 км ясно -29.2 -33.7 65 -29 -29 1022.7 931.2 -24.4
12 18.03 штиль 0 50 км ясно -36.6 -40.1 70 -37 -37 опасность
обморожения
1026.5 931.9
15 18.03 штиль 0 50 км ясно -41.9 -45.0 72 -42 -42 опасность
обморожения
1029.5 932.5
18 18.03 штиль 0 50 км ясно -42.4 -45.6 71 -42 -42 опасность
обморожения
1030.2 933.0
21 18.03 штиль 0 50 км ясно -43.0 -46.2 71 -43 -43 опасность
обморожения
1031.1 933.5 -43.6 29
00 19.03 штиль 0 50 км ясно -40.0 -43.4 70 -40 -37 опасность
обморожения
1030.3 934.0
03 19.03 штиль 0 50 км ясно -31.7 -36.2 64 -32 -26 опасность
обморожения
1026.8 933.9
06 19.03 штиль 0 50 км ясно -27.1 -32.5 60 -27 -24 1024.8 933.7
09 19.03 штиль 0 50 км ясно -30.0 -34.5 65 -30 -30 1026.3 934.1 -27.0
12 19.03 штиль 0 50 км ясно -37.9 -41.6 68 -38 -38 опасность
обморожения
1030.2 934.7
15 19.03 штиль 0 50 км ясно -40.6 -43.9 70 -41 -41 опасность
обморожения
1031.8 935.2
18 19.03 штиль 0 50 км ясно -41.5 -45.0 69 -42 -42 опасность
обморожения
1032.8 935.6
21 19.03 штиль 0 50 км ясно -42.8 -46.2 69 -43 -43 опасность
обморожения
1033.2 935.5 -43.3 29
00 20.03 штиль 0 50 км ясно -38.5 -42.0 69 -39 -36 опасность
обморожения
1031.6 935.7
03 20.03 штиль 0 50 км ясно -31.9 -36.5 64 -32 -26 опасность
обморожения
1028.4 935.4
06 20.03 штиль 0 50 км ясно -25.0 -30.5 60 -25 -22 1025.7 935.4
09 20.03 штиль 0 50 км ясно -27.6 -33.0 60 -28 -28 1027.0 935.6 -24.6
12 20.03 штиль 0 50 км ясно -35.7 -39.4 69 -36 -36 опасность
обморожения
1031.3 936.5
15 20.03 штиль 0 50 км ясно -39.7 -42.9 71 -40 -40 опасность
обморожения
1033.3 936.8
18 20.03 штиль 0 50 км ясно -41.5 -45.0 69 -42 -42 опасность
обморожения
1034.4 937.1
21 20.03 штиль 0 50 км ясно -41.6 -45.0 69 -42 -42 опасность
обморожения
1034.0 936.7 -42.1 29
00 21.03 штиль 0 50 км ясно -36.8 -40.4 69 -37 -34 опасность
обморожения
1031.8 936.6
03 21.03 штиль 0 50 км ясно -30.8 -35.3 65 -31 -25 опасность
обморожения
1028.8 936.1
06 21.03 штиль 0 50 км ясно -22.4 -30.9 46 -22 -20 1024.8 935.4
09 21.03 штиль 0 50 км ясно -26.6 -32.1 60 -27 -27 1026.1 935.2 -22.3
12 21.03 штиль 0 50 км ясно -34.5 -38.1 70 -35 -35 опасность
обморожения
1029.8 935.6
15 21.03 штиль 0 50 км ясно -37.6 -41.2 69 -38 -38 опасность
обморожения
1030.5 935.2
18 21.03 штиль 0 50 км ясно -41.9 -45.0 72 -42 -42 опасность
обморожения
1031.9 934.7
21 21.03 штиль 0 50 км ясно -44.0 -47.6 67 -44 -44 опасность
обморожения
1032.6 934.5 -44.7 29
00 22.03 штиль 0 50 км ясно -38.2 -42.3 65 -38 -35 опасность
обморожения
1029.0 933.5
03 22.03 штиль 0 50 км ясно -30.8 -36.2 59 -31 -25 опасность
обморожения
1024.1 931.8
06 22.03 штиль 0 50 км ясно -21.6 -28.2 55 -22 -19 1018.5 929.9
09 22.03 штиль 0 50 км ясно -25.6 -31.2 59 -26 -26 1018.3 928.4 -21.4
12 22.03 штиль 0 50 км ясно -37.5 -41.9 63 -38 -38 опасность
обморожения
1022.2 927.6
15 22.03 СЗ 1 50 км ясно -40.0 -43.4 70 -45 -45 опасность
обморожения
1021.8 926.4
18 22.03 штиль 0 50 км ясно -41.7 -45.0 70 -42 -42 опасность
обморожения
1020.9 924.8
21 22.03 штиль 0 50 км 4/0
[Cs]
-43.3 -46.9 67 -43 -43 опасность
обморожения
1021.1 924.4 -43.7 29
00 23.03 штиль 0 50 км 4/0
[Cs]
-38.4 -42.0 69 -38 -36 опасность
обморожения
1017.5 923.0
03 23.03 штиль 0 50 км 1/0
[Ci fib]
-22.5 -27.3 65 -23 -17 1009.9 921.8
06 23.03 Ю 3 50 км 9/0
[Cs]
-17.4 -25.4 50 -24 -23 1007.0 920.8
09 23.03 ЮВ 3 50 км 9/0
[As trans Cs]
-21.8 -28.4 55 -30 -30 1008.8 921.0 -17.0
12 23.03 В 3 50 км 6/0
[As trans Ci fib]
-24.6 -29.4 64 -33 -33 опасность
обморожения
1010.2 921.4
15 23.03 штиль 0 50 км 1/0
[Cs]
-32.9 -35.8 75 -33 -33 опасность
обморожения
1013.8 921.6
18 23.03 штиль 0 50 км ясно -36.6 -39.4 75 -37 -37 опасность
обморожения
1015.5 921.9
21 23.03 штиль 0 50 км ясно -40.1 -43.4 70 -40 -40 опасность
обморожения
1017.9 922.7 -40.8 29
00 24.03 штиль 0 50 км ясно -36.0 -40.1 66 -36 -33 опасность
обморожения
1016.8 923.3 -40.8 29
03 24.03 штиль 0 50 км ясно -26.9 -32.4 60 -27 -21 1013.6 923.6
06 24.03 штиль 0 50 км ясно -20.6 -26.4 60 -21 -17 1011.9 924.2

 

Местоположение метеостанции Иэма (Якутия, Россия): широта 65.30 долгота 135.80 высота над уровнем моря 675 м.

В архиве по умолчанию представлена погода в Иэме за последнюю неделю. Архивные данные за месяц целиком и за предыдущие месяцы, начиная с января 2011 года, Вы можете получить, выбрав интересующий диапазон дат из раскрывающегося списка и нажав кнопку "Ввод!".


*Определитесь, кто Вы:
робот инопланетянин человек

Внимание! Время в таблицах - всемирное. Для получения местного времени необходимо прибавить поправку, которая равна 9 ч.

Смотрите также архив погоды в соседних городах и на ближайших метеорологических станциях:

Погода в Томпо (Якутия, Россия) (150 км)
Погода в Усть-Чарках (Якутия, Россия) (171 км)
Погода в Екюччю (Якутия, Россия) (250 км)
Погода в Батагае (Якутия, Россия) (267 км)
Погода в Себян-Кюеле (Якутия, Россия) (269 км)
Погода в Верхоянске (Якутия, Россия) (274 км)
Погода в Крест-Хальджае (Якутия, Россия) (284 км)
Погода в Теплом Ключе (Якутия, Россия) (284 км)
Погода в Верхоянском Перевозе (Якутия, Россия) (286 км)
Погода в Восточной (Якутия, Россия) (294 км)

Пояснения к столбцам:

Ветер - указаны скорость ветра в м/с - средняя за 10 мин, порывы в срок и между сроками (в фигурных скобках) и направление, откуда дует ветер: С - северный, СВ - северо-восточный, В - восточный, ЮВ - юго-восточный, Ю - южный, ЮЗ - юго-западный, З - западный, СЗ - северо-западный.
Видимость - горизонтальная дальность видимости в метрах или километрах. При видимости от 1 до 10 км при отсутствии осадков обычно наблюдается дымка, при ухудшении видимости до 1 км и менее - туман. В сухую погоду видимость может ухудшаться дымом, пылью или мглою.
Явления - указаны атмосферные явления, наблюдавшиеся в срок или в последний час перед сроком; фигурными скобками обозначены явления, наблюдавшиеся между сроками (за 1-3 часа до срока); квадратными скобками обозначены град или гололедные отложения с указанием их диаметра в мм.
Облачность - указаны через наклонную черту общая и нижняя облачность в баллах и высота нижней границы облаков в метрах; квадратными скобками обозначены формы облаков: Ci - перистые, Cs - перисто-слоистые, Cc - перисто-кучевые, Ac - высококучевые, As - высокослоистые, Sc - слоисто-кучевые, Ns - слоисто-дождевые, Cu - кучевые, Cb - кучево-дождевые. Подробнее классификацию облаков см. в Атласе облаков (PDF).
T - Температура воздуха - температура, измеренная на высоте 2 м над землей.
Td - Температура точки росы - температура, при понижении до которой содержащийся в воздухе водяной пар достигнет насыщения.
f - Относительная влажность воздуха - влажноcть воздуха, измеренная на высоте 2 м над землей.
Te - Эффективная температура - температура, которую ощущает одетый по сезону человек в тени. Характеристика душности погоды. При расчете учитывается влияние влажности воздуха и скорости ветра на теплоощущения человека.
Tes - Эффективная температура на солнце - температура, которую ощущает человек, с поправкой на солнечный нагрев. Характеристика знойности погоды. Зависит от высоты солнца над горизонтом, облачности и скорости ветра. Ночью, в пасмурную погоду, а также при ветре 12 м/с и более поправка равна нулю.
P - Атмосферное давление - приведенное к уровню моря атмосферное давление.
Po - Атмосферное давление - измеренное на уровне метеостанции атмосферное давление.
Tmin - Минимальная температура - минимум температуры воздуха на высоте 2 м над землей.
Tmax - Максимальная температура - максимум температуры воздуха на высоте 2 м над землей.
R - Количество осадков - Количество выпавших осадков за период времени, мм. При наведении курсора мыши на число - период времени, за который выпало указанное количество осадков.
R24 - Количество осадков - Количество выпавших осадков за 24 часа, мм.
S - Снежный покров - Высота снежного покрова, см. При наведении курсора мыши на число - состояние снежного покрова и степень покрытия местности в баллах.